This demonstration page uses our WeatherBlox Daily Observations layout. Learn more.

Left ArrowRight Arrow

Hourly Observations for May 6, 2021

Temp ( °F °C ) Dew Point ( °F °C ) Humidity (%) Winds ( mph kmh ) Pressure ( in mb ) Visibility ( mi km ) Precip ( " mm )
12:15 am 00:15 Partly Cloudy 50 10.2 38 3.6 64 64 NNW 6 9 30.22 1023 10 16.0934 N/A
12:35 am 00:35 Clear 51 10.5 39 3.8 64 64 NNW 7 11 30.22 1023 10 16.0934 N/A
12:55 am 00:55 Clear 50 10.2 39 4 66 66 NNW 13 20 30.23 1024 10 16.0934 N/A
1:15 am 01:15 Clear 51 10.3 40 4.3 67 67 N 12 19 30.25 1024 10 16.0934 N/A
1:35 am 01:35 Clear 49 9.4 40 4.4 71 71 N 7 11 30.26 1025 10 16.0934 N/A
1:55 am 01:55 Clear 47 8.5 40 4.4 76 76 N 8 13 30.28 1025 10 16.0934 N/A
2:15 am 02:15 Clear 47 8.3 40 4.6 78 78 N 12 19 30.29 1026 10 16.0934 N/A
2:35 am 02:35 Clear 46 7.7 40 4.5 80 80 N 13 20 30.29 1026 10 16.0934 N/A
2:55 am 02:55 Clear 45 7 40 4.3 83 83 N 7 11 30.31 1026 10 16.0934 N/A
3:15 am 03:15 Clear 44 6.5 40 4.3 86 86 N 7 11 30.31 1027 10 16.0934 N/A
3:35 am 03:35 Clear 44 6.5 40 4.2 85 85 N 8 13 30.31 1027 10 16.0934 N/A
3:55 am 03:55 Clear 43 6.1 39 4.1 87 87 N 8 13 30.33 1027 10 16.0934 N/A
4:15 am 04:15 Clear 43 5.9 39 3.8 87 87 N 9 15 30.34 1027 10 16.0934 N/A
4:35 am 04:35 Clear 42 5.3 38 3.5 88 88 N 8 13 30.35 1028 10 16.0934 N/A
4:55 am 04:55 Clear 42 5.5 38 3.6 88 88 N 10 17 30.34 1028 10 16.0934 N/A
5:15 am 05:15 Clear 42 5.3 38 3.6 89 89 N 8 13 30.36 1028 10 16.0934 N/A
5:35 am 05:35 Clear 41 5 38 3.3 89 89 N 9 15 30.36 1028 10 16.0934 N/A
5:55 am 05:55 Clear 41 4.8 38 3.3 90 90 N 8 13 30.37 1028 10 16.0934 N/A
6:15 am 06:15 Clear 41 4.8 38 3.2 90 90 N 9 15 30.38 1029 10 16.0934 N/A
6:35 am 06:35 Sunny 40 4.7 38 3.2 90 90 N 6 9 30.39 1029 10 16.0934 N/A
6:55 am 06:55 Sunny 40 4.6 38 3.2 91 91 N 7 11 30.39 1029 10 16.0934 N/A
7:15 am 07:15 Sunny 41 4.9 38 3.5 91 91 N 8 13 30.39 1029 10 16.0934 N/A
7:35 am 07:35 Sunny 42 5.5 39 3.8 89 89 N 7 11 30.4 1030 10 16.0934 N/A
7:55 am 07:55 Partly Cloudy 43 6.2 40 4.3 88 88 N 8 13 30.41 1030 10 16.0934 N/A
8:15 am 08:15 Sunny 44 6.7 40 4.4 85 85 N 8 13 30.4 1030 10 16.0934 N/A
8:35 am 08:35 Sunny 45 7.1 40 4.3 83 83 N 9 15 30.4 1029 10 16.0934 N/A
8:55 am 08:55 Sunny 46 7.5 40 4.4 81 81 N 7 11 30.41 1030 10 16.0934 N/A
9:15 am 09:15 Sunny 47 8.3 40 4.6 78 78 N 9 15 30.39 1029 10 16.0934 N/A
9:35 am 09:35 Sunny 48 9 39 4.1 72 72 N 10 17 30.38 1029 10 16.0934 N/A
9:55 am 09:55 Sunny 49 9.6 40 4.3 70 70 N 9 15 30.38 1029 10 16.0934 N/A
10:15 am 10:15 Sunny 51 10.4 39 4 65 65 NNE 9 15 30.37 1028 10 16.0934 N/A
10:35 am 10:35 Sunny 52 10.9 38 3.6 61 61 NNE 7 11 30.36 1028 10 16.0934 N/A
10:55 am 10:55 Sunny 53 11.8 37 2.5 53 53 NNE 6 9 30.36 1028 10 16.0934 N/A
11:15 am 11:15 Sunny 54 12.4 37 2.6 52 52 N N/A 30.35 1028 10 16.0934 N/A
11:35 am 11:35 Sunny 55 12.9 34 1.1 45 45 N 8 13 30.34 1027 10 16.0934 N/A
11:55 am 11:55 Sunny 57 14.1 35 1.7 43 43 ENE 8 13 30.33 1027 10 16.0934 N/A
12:15 pm 12:15 Sunny 58 14.3 30 -0.9 35 35 NNE 7 11 30.31 1027 10 16.0934 N/A
12:35 pm 12:35 Sunny 58 14.5 30 -1.2 34 34 NNE 6 9 30.31 1027 10 16.0934 N/A
12:55 pm 12:55 Sunny 59 15.2 31 -0.8 34 34 N N/A 30.3 1026 10 16.0934 N/A
1:15 pm 13:15 Sunny 60 15.6 28 -2.5 29 29 N N/A 30.27 1025 10 16.0934 N/A
1:35 pm 13:35 Sunny 61 16 29 -1.5 30 30 NNW 3 6 30.27 1025 10 16.0934 N/A
1:55 pm 13:55 Sunny 61 16.2 28 -2 29 29 W 7 11 30.26 1025 10 16.0934 N/A
2:15 pm 14:15 Sunny 62 16.5 29 -1.5 29 29 N 3 6 30.25 1024 10 16.0934 N/A
2:35 pm 14:35 Sunny 62 16.9 31 -0.4 31 31 NW 7 11 30.24 1024 10 16.0934 N/A
2:55 pm 14:55 Partly Cloudy 63 17.3 30 -1 29 29 WNW 6 9 30.22 1023 10 16.0934 N/A
3:15 pm 15:15 Partly Cloudy 64 17.6 30 -1.1 28 28 N N/A 30.22 1023 10 16.0934 N/A
3:35 pm 15:35 Sunny 64 17.7 30 -1.1 28 28 WNW 5 7 30.21 1023 10 16.0934 N/A
3:55 pm 15:55 Partly Cloudy 64 17.6 29 -1.9 27 27 SSW 9 15 30.21 1023 10 16.0934 N/A
4:15 pm 16:15 Partly Cloudy 64 17.6 28 -2 26 26 WSW 5 7 30.2 1023 10 16.0934 N/A
4:35 pm 16:35 Mostly Cloudy 64 17.7 29 -1.8 27 27 ESE 6 9 30.19 1022 10 16.0934 N/A
4:55 pm 16:55 Mostly Cloudy 66 18.9 32 -0.1 28 28 W 5 7 30.17 1022 10 16.0934 N/A
5:15 pm 17:15 Partly Cloudy 66 19 32 0.2 28 28 WSW 10 17 30.15 1021 10 16.0934 N/A
5:35 pm 17:35 Sunny 66 19 32 undefined 28 28 W 9 15 30.15 1021 10 16.0934 N/A
5:55 pm 17:55 Sunny 67 19.3 33 0.7 29 29 SW 8 13 30.14 1021 10 16.0934 N/A
6:15 pm 18:15 Partly Cloudy 66 19 33 0.5 29 29 SSW 10 17 30.13 1020 10 16.0934 N/A
6:35 pm 18:35 Partly Cloudy 64 17.8 33 0.5 31 31 SW 6 9 30.14 1020 10 16.0934 N/A
6:55 pm 18:55 Mostly Cloudy 66 19.1 34 1.3 31 31 SW 8 13 30.12 1020 10 16.0934 N/A
7:15 pm 19:15 Cloudy 65 18.6 33 0.5 30 30 SSW 7 11 30.12 1020 10 16.0934 N/A
7:35 pm 19:35 Partly Cloudy 65 18.5 33 0.7 30 30 SW 7 11 30.11 1020 10 16.0934 N/A
7:55 pm 19:55 Sunny 64 18 34 0.9 32 32 SSW 9 15 30.1 1019 10 16.0934 N/A
8:15 pm 20:15 Sunny 64 17.5 34 1 33 33 SSW 9 15 30.11 1020 10 16.0934 N/A
8:35 pm 20:35 Sunny 62 16.5 34 1.1 36 36 S 8 13 30.12 1020 10 16.0934 N/A
8:55 pm 20:55 Clear 60 15.5 35 1.6 39 39 S 7 11 30.12 1020 10 16.0934 N/A
9:15 pm 21:15 Clear 59 14.8 36 2.1 43 43 S 7 11 30.13 1020 10 16.0934 N/A
9:35 pm 21:35 Clear 58 14.2 36 2 44 44 S 9 15 30.14 1021 10 16.0934 N/A
9:55 pm 21:55 Clear 56 13.5 37 2.5 48 48 S 10 17 30.14 1021 10 16.0934 N/A
10:15 pm 22:15 Clear 56 13.5 37 2.5 48 48 S 12 19 30.14 1021 10 16.0934 N/A
10:35 pm 22:35 Clear 55 12.9 37 2.8 51 51 S 9 15 30.15 1021 10 16.0934 N/A
10:55 pm 22:55 Clear 55 12.9 37 2.7 50 50 SSW 10 17 30.15 1021 10 16.0934 N/A
11:15 pm 23:15 Clear 55 12.5 37 2.9 52 52 SSW 6 9 30.15 1021 10 16.0934 N/A
11:35 pm 23:35 Clear 54 12 37 3 54 54 SSW 10 17 30.15 1021 10 16.0934 N/A
11:55 pm 23:55 Clear 53 11.6 37 3 56 56 SSW 8 13 30.15 1021 10 16.0934 N/A

Powered by AerisWeather